Location: Harburg
(48.7667°N, 10.6667°E)
Time: 08:10:27
(UTC+00:00)

Cosmos 2098 Rocket - Pass Details

Date: 18 September 2020
Orbit: 366 x 1185 km, 82.9° (Epoch: 27 October)

Event Time Altitude Azimuth Distance (km) Brightness Sun altitude
Rises 20:52:33 0° 349° (N) 4,071 8.0 -31.5°
Reaches altitude 10° 20:55:22 10° 348° (NNW) 3,065 7.3 -31.9°
Enters shadow 21:02:19 75° 290° (WNW) 1,094 4.2 -32.6°
